Flag for Canada Weather past 2 weeks in Charlottetown, Prince Edward Island, Canada

Now
64 °F

Partly sunny.


Feels Like: 64 °F
Forecast: 48 / 76 °F
Wind: 13 mph from Southwest

Location: Charlottetown

Current Time: Sep 5, 2015 at 12:13:58 PM

Latest Report: Sep 5, 2015 at 11:00 AM


Visibility: 15 mi

Pressure: 30.17 "Hg

Humidity: 68%

Dew point: 54 °F

Location of CharlottetownLocation

Historic Weather in Charlottetown — Graph

°F

Charlottetown temperature yesterday

Maximum temperature yesterday: 63 °F (at 1:00 PM)
Minimum temperature yesterday: 45 °F (at 11:00 PM)
Average temperature yesterday: 56 °F

Past Weeks' High & Low Weather Summary

 TemperatureHumidityPressure
High84 °F (Aug 21, 4:00 PM)100% (Aug 22, 4:00 AM)30.25 "Hg (Aug 22, 4:00 AM)
Low45 °F (Sep 4, 11:00 PM)56% (Sep 4, 1:00 PM)29.59 "Hg (Aug 31, 7:00 PM)
Average66 °F84%29.98 "Hg
* Reported Aug 21 11:00 AM — Sep 5 11:00 AM, Charlottetown, Weather by CustomWeather, © 2015

Note: Actual official high and low records may vary slightly from our data, if they occured in-between our weather recording intervals... More about our weather records

Advertising

Charlottetown weather history for previous 24 hours

 ConditionsComfort  
Time TempWeatherWind HumidityBarometerVisibility
11:00 AM
Sat, Sep 5
64 °FPartly sunny.13 mph68%30.17 "Hg15 mi
10:00 AM63 °FPartly sunny.9 mph73%30.21 "Hg15 mi
9:00 AM59 °FScattered clouds.6 mph82%30.22 "Hg15 mi
8:00 AM54 °FScattered clouds.7 mph88%30.22 "Hg15 mi
7:00 AM50 °FPassing clouds.7 mph88%30.21 "Hg15 mi
6:00 AM50 °FPassing clouds.6 mph88%30.22 "Hg15 mi
5:00 AM52 °FClear.7 mph77%30.20 "Hg15 mi
4:00 AM48 °FClear.5 mph87%30.21 "Hg15 mi
3:00 AM50 °FClear.7 mph82%30.22 "Hg15 mi
2:00 AM46 °FClear.3 mph93%30.23 "Hg15 mi
1:00 AM46 °FClear.5 mph87%30.24 "Hg15 mi
12:00 AM46 °FClear.3 mph93%30.24 "Hg15 mi
11:00 PM
Fri, Sep 4
45 °FClear.No wind93%30.24 "Hg15 mi
10:00 PM46 °FClear.2 mph93%30.25 "Hg15 mi
9:00 PM48 °FPassing clouds.3 mph94%30.24 "Hg15 mi
8:00 PM52 °FPassing clouds.3 mph82%30.21 "Hg15 mi
7:00 PM57 °FScattered clouds.5 mph63%30.22 "Hg15 mi
6:00 PM59 °FScattered clouds.10 mph68%30.22 "Hg15 mi
5:00 PM61 °FBroken clouds.12 mph63%30.22 "Hg15 mi
4:00 PM59 °FScattered clouds.12 mph68%30.20 "Hg15 mi
3:00 PM63 °FScattered clouds.10 mph59%30.20 "Hg15 mi
2:00 PM63 °FScattered clouds.8 mph56%30.20 "Hg15 mi
1:00 PM63 °FPartly sunny.13 mph56%30.19 "Hg15 mi
12:00 PM61 °FPartly sunny.9 mph63%30.19 "Hg15 mi
Weather by CustomWeather, © 2015

See weather overviewHow to use our weather pages